Satellite: MET-3/5
Catalog number: 21655
Epoch time:      08331.84336740
Element set:     520
Inclination:      082.5551 deg
RA of node:       349.4637 deg
Eccentricity:    0.0013103
Arg of perigee:   332.5031 deg
Mean anomaly:     027.5396 deg
Mean motion:   13.17017587 rev/day
Decay rate:        5.1e-07 rev/day^2
Epoch rev:           83099
Checksum:              289

Satellite: MET-2/21
Catalog number: 22782
Epoch time:      08331.55496857
Element set:     311
Inclination:      082.5480 deg
RA of node:       342.7643 deg
Eccentricity:    0.0022037
Arg of perigee:   191.0801 deg
Mean anomaly:     168.9891 deg
Mean motion:   13.83631596 rev/day
Decay rate:        9.9e-07 rev/day^2
Epoch rev:           76958
Checksum:              336

Satellite: OKEAN-4
Catalog number: 23317
Epoch time:      08332.44812455
Element set:     758
Inclination:      082.5376 deg
RA of node:       162.7406 deg
Eccentricity:    0.0021178
Arg of perigee:   312.9177 deg
Mean anomaly:     047.0278 deg
Mean motion:   14.82655155 rev/day
Decay rate:       3.64e-06 rev/day^2
Epoch rev:           76247
Checksum:              314

Satellite: NOAA-14
Catalog number: 23455
Epoch time:      08331.33579295
Element set:     404
Inclination:      098.9324 deg
RA of node:       043.5402 deg
Eccentricity:    0.0009974
Arg of perigee:   049.7601 deg
Mean anomaly:     310.4484 deg
Mean motion:   14.13753100 rev/day
Decay rate:       2.18e-06 rev/day^2
Epoch rev:           71726
Checksum:              292

Satellite: NOAA-15
Catalog number: 25338
Epoch time:      08332.49945472
Element set:     713
Inclination:      098.5682 deg
RA of node:       320.3244 deg
Eccentricity:    0.0009815
Arg of perigee:   287.9372 deg
Mean anomaly:     072.0739 deg
Mean motion:   14.24734785 rev/day
Decay rate:       1.34e-06 rev/day^2
Epoch rev:           54805
Checksum:              328

Satellite: RESURS
Catalog number: 25394
Epoch time:      08331.54193665
Element set:      79
Inclination:      098.3652 deg
RA of node:       007.9343 deg
Eccentricity:    0.0002408
Arg of perigee:   078.2604 deg
Mean anomaly:     281.8850 deg
Mean motion:   14.24175702 rev/day
Decay rate:       -2.8e-07 rev/day^2
Epoch rev:           53955
Checksum:              306

Satellite: FENGYUN1
Catalog number: 25730
Epoch time:      08332.24258715
Element set:     624
Inclination:      098.7395 deg
RA of node:       302.6397 deg
Eccentricity:    0.0022619
Arg of perigee:   062.5577 deg
Mean anomaly:     297.7890 deg
Mean motion:   14.07875336 rev/day
Decay rate:       7.08e-06 rev/day^2
Epoch rev:           49190
Checksum:              336

Satellite: OKEAN-0
Catalog number: 25860
Epoch time:      08332.02126497
Element set:     534
Inclination:      097.7655 deg
RA of node:       315.5046 deg
Eccentricity:    0.0001736
Arg of perigee:   080.6121 deg
Mean anomaly:     279.5281 deg
Mean motion:   14.73546305 rev/day
Decay rate:        3.1e-07 rev/day^2
Epoch rev:           50337
Checksum:              283

Satellite: NOAA-16
Catalog number: 26536
Epoch time:      08332.48370027
Element set:     186
Inclination:      099.1699 deg
RA of node:       325.3525 deg
Eccentricity:    0.0011144
Arg of perigee:   125.2894 deg
Mean anomaly:     234.9346 deg
Mean motion:   14.12502477 rev/day
Decay rate:       -3.4e-07 rev/day^2
Epoch rev:           42182
Checksum:              301

Satellite: NOAA-17
Catalog number: 27453
Epoch time:      08332.34738689
Element set:     192
Inclination:      098.5168 deg
RA of node:       032.0831 deg
Eccentricity:    0.0011622
Arg of perigee:   357.4434 deg
Mean anomaly:     002.6709 deg
Mean motion:   14.24021298 rev/day
Decay rate:       2.29e-06 rev/day^2
Epoch rev:           33402
Checksum:              293

Satellite: NOAA-18
Catalog number: 28654
Epoch time:      08331.48831010
Element set:     679
Inclination:      098.8856 deg
RA of node:       270.5382 deg
Eccentricity:    0.0013809
Arg of perigee:   212.8138 deg
Mean anomaly:     147.2174 deg
Mean motion:   14.11210046 rev/day
Decay rate:      -1.92e-06 rev/day^2
Epoch rev:           18136
Checksum:              301

/EX
SB KEPS @ AMSAT  $ORB08332.M
Orbital Elements  08332.MISC

HR AMSAT ORBITAL ELEMENTS FOR MANNED AND MISCELLANEOUS SATELLITES
FROM WA5QGD FORT WORTH,TX November 27, 2008
Send Subscribe/unsubscribe to KEPS at 
http://www.amsat.org/mailman/listinfo/keps
BID: ORB08332.M
TO ALL RADIO AMATEURS BT

Satellite: HUBBLE
Catalog number: 20580
Epoch time:      08332.17931590
Element set:     271
Inclination:      028.4701 deg
RA of node:       340.1043 deg
Eccentricity:    0.0003531
Arg of perigee:   311.8479 deg
Mean anomaly:     048.1804 deg
Mean motion:   15.00432063 rev/day
Decay rate:       3.11e-06 rev/day^2
Epoch rev:           81948
Checksum:              251

Satellite: PO-34
Catalog number: 25520
Epoch time:      08331.93223830
Element set:     130
Inclination:      028.4596 deg
RA of node:       169.1667 deg
Eccentricity:    0.0005206
Arg of perigee:   256.9313 deg
Mean anomaly:     103.0700 deg
Mean motion:   15.17263367 rev/day
Decay rate:       3.94e-06 rev/day^2
Epoch rev:           55790
Checksum:              286

